COSMOS 2485 (747)

Last updated on Mon Nov 03 2025 00:03:33 GMT+0000 (Coordinated Universal Time)

1 39155U 13019A 25305.78873729 .00000041 00000+0 00000+0 0 9996 2 39155 65.2932 81.2436 0023556 227.1726 132.6259 2.13104293 97430
UTC large
Height (km)
Speed (km/s)
/
Latitude / Longitude
Inclination (degrees)
Orbital Period (minutes)
Azimuth
Elevation
Range (km)
Doppler Factor

Next 0 passes for location: London (51.5072 / 0.1276)

Sorry there are no passes over London.